DLH9250 LIRN-EDDH

Flight info

Callsign DLH9250
Flight time 2h 42m
Altitude 36000
Route MOLUX DCT TORPO DCT LAMSI DCT ARMUT DCT ABGUS DCT DIRBO/N0422F230 T902 RARUP RARUP3P
Aircraft A320/M-SDE3FGHIRWY/LB1

Departure

Time 2026-04-24 16:12
Airport Naples International Airport (LIRN)

Arrival

Time 2026-04-24 18:55
Airport Hamburg Helmut Schmidt Airport (EDDH)
Time Latitude Longitude Altitude Speed Heading
2026-04-24 15:48 40.87865 14.28406 294 ft 0 kts 187°
2026-04-24 16:01 40.87869 14.28406 293 ft 3 kts 187°
2026-04-24 16:02 40.87887 14.28409 293 ft 3 kts 187°
2026-04-24 16:02 40.87898 14.28411 297 ft 3 kts 187°
2026-04-24 16:02 40.87915 14.28414 296 ft 2 kts 190°
2026-04-24 16:02 40.87932 14.28414 292 ft 2 kts 137°
2026-04-24 16:03 40.87939 14.28404 289 ft 0 kts 94°
2026-04-24 16:06 40.87950 14.28467 290 ft 6 kts 58°
2026-04-24 16:06 40.87980 14.28506 286 ft 6 kts 39°
2026-04-24 16:06 40.88056 14.28624 283 ft 10 kts 52°
2026-04-24 16:07 40.88098 14.28695 281 ft 10 kts 52°
2026-04-24 16:07 40.88141 14.28770 279 ft 10 kts 52°
2026-04-24 16:07 40.88232 14.28929 275 ft 12 kts 53°
2026-04-24 16:08 40.88290 14.29028 273 ft 15 kts 52°
2026-04-24 16:08 40.88445 14.29296 266 ft 21 kts 52°
2026-04-24 16:09 40.88591 14.29551 259 ft 12 kts 52°
2026-04-24 16:09 40.88651 14.29654 256 ft 16 kts 52°
2026-04-24 16:09 40.88727 14.29785 252 ft 20 kts 52°
2026-04-24 16:09 40.88796 14.29905 248 ft 14 kts 52°
2026-04-24 16:10 40.88966 14.30179 238 ft 11 kts 15°
2026-04-24 16:11 40.89067 14.30063 239 ft 5 kts 256°
2026-04-24 16:11 40.89058 14.30041 239 ft 0 kts 236°
2026-04-24 16:12 40.88909 14.29719 250 ft 79 kts 238°
2026-04-24 16:12 40.88499 14.28848 273 ft 141 kts 238°
2026-04-24 16:12 40.87246 14.26474 1300 ft 161 kts 229°
2026-04-24 16:13 40.86389 14.25435 1676 ft 172 kts 222°
2026-04-24 16:13 40.84292 14.23669 2484 ft 190 kts 195°
2026-04-24 16:14 40.81673 14.24534 3293 ft 202 kts 160°
2026-04-24 16:14 40.80332 14.25123 3784 ft 204 kts 163°
2026-04-24 16:14 40.77579 14.26197 4926 ft 208 kts 164°
2026-04-24 16:15 40.76651 14.26546 5354 ft 210 kts 164°
2026-04-24 16:15 40.73319 14.27776 6809 ft 216 kts 164°
2026-04-24 16:16 40.70385 14.28850 7973 ft 226 kts 164°
2026-04-24 16:16 40.68795 14.29452 8220 ft 250 kts 163°
2026-04-24 16:17 40.65570 14.35072 9377 ft 295 kts 82°
2026-04-24 16:17 40.67561 14.39723 10206 ft 315 kts 35°
2026-04-24 16:18 40.71611 14.42731 10639 ft 354 kts 20°
2026-04-24 16:18 40.76252 14.45310 11789 ft 369 kts 20°
2026-04-24 16:18 40.78622 14.46684 12417 ft 375 kts 21°
2026-04-24 16:19 40.83416 14.49683 13582 ft 388 kts 23°
2026-04-24 16:19 40.85859 14.51284 14116 ft 395 kts 24°
2026-04-24 16:20 40.90848 14.54580 15150 ft 407 kts 24°
2026-04-24 16:20 40.95991 14.57951 16209 ft 417 kts 25°
2026-04-24 16:20 40.98610 14.59661 16713 ft 422 kts 24°
2026-04-24 16:21 41.03920 14.63123 17716 ft 430 kts 26°
2026-04-24 16:21 41.06619 14.64885 18181 ft 435 kts 26°
2026-04-24 16:21 41.09346 14.66671 18665 ft 439 kts 25°
2026-04-24 16:22 41.12097 14.68477 19114 ft 443 kts 27°
2026-04-24 16:22 41.17643 14.72121 20141 ft 446 kts 28°
2026-04-24 16:22 41.20425 14.73952 20644 ft 447 kts 28°
2026-04-24 16:23 41.23222 14.75794 21084 ft 450 kts 29°
2026-04-24 16:23 41.26040 14.77634 21526 ft 454 kts 27°
2026-04-24 16:23 41.29026 14.79058 21988 ft 458 kts 17°
2026-04-24 16:24 41.35420 14.79892 22791 ft 469 kts 357°
2026-04-24 16:24 41.38667 14.79394 23174 ft 471 kts 354°
2026-04-24 16:24 41.41927 14.78850 23562 ft 473 kts 355°
2026-04-24 16:24 41.45204 14.78309 23926 ft 476 kts 355°
2026-04-24 16:25 41.48496 14.77769 24308 ft 477 kts 355°
2026-04-24 16:25 41.51804 14.77230 24732 ft 478 kts 356°
2026-04-24 16:25 41.55102 14.76690 25194 ft 476 kts 357°
2026-04-24 16:26 41.61658 14.75608 26026 ft 476 kts 356°
2026-04-24 16:26 41.64957 14.75063 26283 ft 479 kts 356°
2026-04-24 16:26 41.71544 14.73974 27287 ft 471 kts 357°
2026-04-24 16:27 41.74764 14.73435 27994 ft 461 kts 357°
2026-04-24 16:27 41.77932 14.72902 28573 ft 456 kts 356°
2026-04-24 16:27 41.81060 14.72375 29117 ft 451 kts 356°
2026-04-24 16:27 41.84165 14.71853 29617 ft 448 kts 357°
2026-04-24 16:28 41.87246 14.71344 30075 ft 443 kts 356°
2026-04-24 16:28 41.90284 14.70849 30635 ft 438 kts 356°
2026-04-24 16:28 41.96306 14.69870 31430 ft 434 kts 356°
2026-04-24 16:29 41.99305 14.69372 31802 ft 433 kts 356°
2026-04-24 16:29 42.02289 14.68871 32151 ft 432 kts 356°
2026-04-24 16:29 42.08250 14.67863 32793 ft 431 kts 356°
2026-04-24 16:30 42.14196 14.66864 33454 ft 429 kts 356°
2026-04-24 16:30 42.17156 14.66369 33759 ft 428 kts 356°
2026-04-24 16:30 42.20108 14.65877 34103 ft 427 kts 356°
2026-04-24 16:31 42.23056 14.65385 34413 ft 426 kts 356°
2026-04-24 16:31 42.25997 14.64892 34702 ft 426 kts 356°
2026-04-24 16:31 42.28932 14.64400 34975 ft 425 kts 356°
2026-04-24 16:31 42.31869 14.63906 35238 ft 425 kts 356°
2026-04-24 16:32 42.33812 14.63577 35405 ft 424 kts 356°
2026-04-24 16:32 42.37694 14.62921 35693 ft 424 kts 356°
2026-04-24 16:32 42.43589 14.61930 35757 ft 428 kts 356°
2026-04-24 16:33 42.49506 14.60926 35756 ft 428 kts 356°
2026-04-24 16:33 42.55419 14.59911 35754 ft 428 kts 356°
2026-04-24 16:34 42.61332 14.58905 35755 ft 428 kts 356°
2026-04-24 16:34 42.67248 14.57902 35758 ft 428 kts 356°
2026-04-24 16:35 42.72164 14.57066 35756 ft 428 kts 356°
2026-04-24 16:35 42.78079 14.56054 35754 ft 428 kts 356°
2026-04-24 16:36 42.83990 14.55045 35758 ft 428 kts 356°
2026-04-24 16:36 42.89911 14.54031 35757 ft 428 kts 356°
2026-04-24 16:37 42.95822 14.53013 35757 ft 428 kts 356°
2026-04-24 16:37 43.01704 14.51995 35753 ft 428 kts 356°
2026-04-24 16:38 43.07618 14.50973 35751 ft 428 kts 356°
2026-04-24 16:38 43.13526 14.49960 35754 ft 428 kts 356°
2026-04-24 16:39 43.19438 14.48931 35751 ft 428 kts 356°
2026-04-24 16:39 43.25342 14.47900 35750 ft 428 kts 356°
2026-04-24 16:40 43.31253 14.46870 35748 ft 427 kts 356°
2026-04-24 16:40 43.37154 14.45846 35746 ft 427 kts 356°
2026-04-24 16:41 43.43057 14.44812 35745 ft 427 kts 356°
2026-04-24 16:41 43.48962 14.43788 35745 ft 427 kts 356°
2026-04-24 16:42 43.54836 14.42761 35743 ft 428 kts 356°
2026-04-24 16:42 43.60739 14.41765 35746 ft 427 kts 357°
2026-04-24 16:43 43.66654 14.40886 35745 ft 427 kts 358°
2026-04-24 16:43 43.72566 14.40034 35748 ft 427 kts 358°
2026-04-24 16:44 43.78483 14.39147 35749 ft 428 kts 357°
2026-04-24 16:44 43.84400 14.38237 35751 ft 428 kts 357°
2026-04-24 16:45 43.90316 14.37332 35753 ft 428 kts 357°
2026-04-24 16:45 43.96236 14.36428 35755 ft 428 kts 357°
2026-04-24 16:46 44.02155 14.35522 35756 ft 428 kts 357°
2026-04-24 16:46 44.08073 14.34620 35757 ft 428 kts 357°
2026-04-24 16:47 44.13996 14.33711 35758 ft 428 kts 357°
2026-04-24 16:47 44.19914 14.32802 35759 ft 428 kts 357°
2026-04-24 16:48 44.25834 14.31888 35758 ft 428 kts 357°
2026-04-24 16:48 44.31753 14.30964 35754 ft 428 kts 357°
2026-04-24 16:49 44.37675 14.30043 35759 ft 428 kts 357°
2026-04-24 16:49 44.43594 14.29128 35755 ft 428 kts 357°
2026-04-24 16:50 44.49515 14.28208 35758 ft 428 kts 357°
2026-04-24 16:50 44.55436 14.27280 35754 ft 428 kts 357°
2026-04-24 16:51 44.61351 14.26360 35755 ft 428 kts 357°
2026-04-24 16:51 44.67232 14.25440 35756 ft 428 kts 357°
2026-04-24 16:52 44.73151 14.24507 35756 ft 428 kts 357°
2026-04-24 16:52 44.79065 14.23572 35756 ft 428 kts 357°
2026-04-24 16:53 44.84984 14.22647 35756 ft 428 kts 357°
2026-04-24 16:53 44.90898 14.21723 35751 ft 428 kts 357°
2026-04-24 16:54 44.96822 14.20788 35755 ft 428 kts 357°
2026-04-24 16:54 45.02741 14.19854 35754 ft 428 kts 357°
2026-04-24 16:55 45.08658 14.18914 35753 ft 428 kts 357°
2026-04-24 16:55 45.14576 14.17964 35744 ft 428 kts 357°
2026-04-24 16:56 45.20502 14.17016 35746 ft 428 kts 357°
2026-04-24 16:56 45.26431 14.16072 35746 ft 428 kts 357°
2026-04-24 16:57 45.32361 14.15123 35741 ft 429 kts 357°
2026-04-24 16:57 45.38264 14.14178 35735 ft 430 kts 357°
2026-04-24 16:58 45.44219 14.13223 35733 ft 431 kts 357°
2026-04-24 16:58 45.50191 14.12256 35738 ft 432 kts 357°
2026-04-24 16:59 45.56156 14.11292 35743 ft 431 kts 357°
2026-04-24 17:00 45.65106 14.09851 35748 ft 431 kts 357°
2026-04-24 17:00 45.74060 14.08393 35746 ft 431 kts 357°
2026-04-24 17:01 45.83010 14.06934 35739 ft 432 kts 357°
2026-04-24 17:02 45.91981 14.05467 35738 ft 433 kts 357°
2026-04-24 17:02 45.97967 14.04487 35745 ft 433 kts 357°
2026-04-24 17:03 46.06931 14.03013 35748 ft 432 kts 357°
2026-04-24 17:04 46.12909 14.02028 35746 ft 432 kts 357°
2026-04-24 17:04 46.21879 14.00546 35742 ft 433 kts 357°
2026-04-24 17:05 46.27874 13.99544 35739 ft 433 kts 357°
2026-04-24 17:06 46.36872 13.98059 35739 ft 434 kts 357°
2026-04-24 17:06 46.45882 13.96558 35740 ft 435 kts 357°
2026-04-24 17:07 46.51858 13.95546 35734 ft 435 kts 357°
2026-04-24 17:08 46.63880 13.93542 35761 ft 433 kts 357°
2026-04-24 17:08 46.69879 13.92541 35748 ft 433 kts 357°
2026-04-24 17:09 46.81881 13.90498 35734 ft 435 kts 357°
2026-04-24 17:10 46.93890 13.88466 35729 ft 436 kts 357°
2026-04-24 17:12 47.18068 13.84333 35747 ft 437 kts 357°
2026-04-24 18:54 53.63515 9.99791 64 ft 132 kts 232°
2026-04-24 18:55 53.62666 9.98066 42 ft 46 kts 230°
2026-04-24 18:55 53.62569 9.97872 41 ft 1 kts 228°
2026-04-24 18:55 53.62524 9.97805 41 ft 14 kts 209°
2026-04-24 18:56 53.62442 9.97830 42 ft 10 kts 134°
2026-04-24 18:56 53.62429 9.97913 46 ft 6 kts 86°
2026-04-24 18:56 53.62442 9.98021 47 ft 15 kts 74°
2026-04-24 18:56 53.62502 9.98171 47 ft 16 kts 50°
2026-04-24 18:57 53.62579 9.98327 47 ft 18 kts 50°
2026-04-24 18:57 53.62662 9.98496 47 ft 18 kts 50°
2026-04-24 18:57 53.62746 9.98664 47 ft 20 kts 50°
2026-04-24 18:57 53.62823 9.98820 47 ft 17 kts 50°
2026-04-24 18:58 53.62892 9.98961 47 ft 10 kts 50°
2026-04-24 18:58 53.62932 9.99041 47 ft 8 kts 50°
2026-04-24 18:58 53.62966 9.99111 47 ft 7 kts 50°
2026-04-24 18:58 53.62994 9.99167 47 ft 6 kts 50°
2026-04-24 18:59 53.62998 9.99176 47 ft 0 kts 50°
2026-04-24 19:02 53.63000 9.99180 47 ft 3 kts 50°
2026-04-24 19:02 53.63029 9.99237 47 ft 4 kts 51°
2026-04-24 19:02 53.63045 9.99274 47 ft 4 kts 53°
2026-04-24 19:02 53.63064 9.99318 47 ft 5 kts 55°
2026-04-24 19:03 53.63082 9.99360 47 ft 4 kts 55°
2026-04-24 19:03 53.63084 9.99366 47 ft 0 kts 55°
2026-04-24 19:03 53.63088 9.99374 47 ft 0 kts 55°
2026-04-24 19:04 53.63106 9.99417 46 ft 8 kts 54°
2026-04-24 19:04 53.63135 9.99487 46 ft 7 kts 54°
2026-04-24 19:04 53.63161 9.99545 46 ft 6 kts 51°
2026-04-24 19:04 53.63182 9.99590 47 ft 4 kts 50°
2026-04-24 19:05 53.63192 9.99609 47 ft 1 kts 50°
2026-04-24 19:05 53.63217 9.99660 48 ft 9 kts 53°
2026-04-24 19:05 53.63221 9.99746 48 ft 7 kts 115°
2026-04-24 19:05 53.63185 9.99792 48 ft 6 kts 150°
2026-04-24 19:06 53.63155 9.99834 48 ft 5 kts 130°
2026-04-24 19:06 53.63134 9.99882 48 ft 5 kts 120°
2026-04-24 19:06 53.63134 9.99933 48 ft 6 kts 73°
2026-04-24 19:06 53.63159 9.99993 48 ft 6 kts 48°
2026-04-24 19:07 53.63195 10.00064 48 ft 8 kts 50°
2026-04-24 19:07 53.63212 10.00099 48 ft 0 kts 50°
2026-04-24 19:07 53.63213 10.00100 48 ft 2 kts 50°
2026-04-24 19:07 53.63249 10.00189 48 ft 7 kts 78°
2026-04-24 19:08 53.63241 10.00262 46 ft 6 kts 93°
2026-04-24 19:08 53.63244 10.00321 48 ft 4 kts 86°
2026-04-24 19:08 53.63245 10.00348 48 ft 1 kts 86°
2026-04-24 19:08 53.63245 10.00353 48 ft 0 kts 86°